sat.trackr.live / text

‹ back to catalog

HULIANWANG DIGUI-43

NORAD 65046 · 2025-162D

PAYLOAD ACTIVE UNKNOWN

§ Identity

Operator
Country
PRC
Launch date
2025-07-30
Launch site
WSC
Launch vehicle
Mass (kg)
RCS (m²)

External: N2YO · Heavens-Above · Gunter

§ Orbital elements

Epoch: 2026-09-21T17:55:03.090720Z

Period
108.33 min
Inclination
49.9983°
Eccentricity
0.0000694
Mean motion
13.29326526 rev/d
Perigee alt
1,148.8 km
Apogee alt
1,149.8 km
Semi-major
7,527.4 km
B*
8.2440e-5
RAAN
279.3517°
Arg perigee
287.3856°
Mean anomaly
72.6940°
Rev number
5,620

§ Raw data

HULIANWANG DIGUI-431 65046U 25162D   26264.74656355 -.00000086  00000+0  82440-4 0  99942 65046  49.9983 279.3517 0000694 287.3856  72.6940 13.29326526 56207

JSON: /api/v1/satellites/65046 · /tle

For live sub-satellite position, see the globe view (requires WebGL).

§ Visibility from observer

Set your observer location to see the next 7 days of passes ≥ 10°. The values pass through the URL so the page stays shareable.

No JS? Fill the form by hand. The geolocation button needs JavaScript.